This demonstration page uses our WeatherBlox Daily Observations layout. Learn more.

Left ArrowRight Arrow

38.88101, -77.10428

Hourly Observations for October 24, 2022

Temp ( °F °C ) Dew Point ( °F °C ) Humidity (%) Winds ( mph kmh ) Pressure ( in mb ) Visibility ( mi km ) Precip ( " mm )
12:29 am 00:29 Cloudy with Drizzle 57 13.9 55 12.8 93 93 NNW 8 13 30.18 1022 3 5 0.01 0.13
12:41 am 00:41 Cloudy with Drizzle 57 13.9 55 12.8 93 93 NNW 9 15 30.18 1022 5 8 0.01 0.13
12:52 am 00:52 Cloudy with Drizzle 57 13.9 55 12.8 93 93 NNW 8 13 30.17 1022 6 10 0.01 0.13
1:00 am 01:00 Cloudy with Drizzle 57 13.9 55 12.8 93 93 NNW 9 15 30.17 1022 6 10 0.01 0.13
1:04 am 01:04 Cloudy with Drizzle 57 13.9 55 12.8 93 93 NNW 8 13 30.17 1022 7 11 0.01 0.13
1:47 am 01:47 Cloudy 57 14 55 13 94 94 NNW 7 11 30.17 1022 10 16 0.01 0.13
1:52 am 01:52 Cloudy 57 13.9 55 12.8 93 93 NNW 7 11 30.16 1022 10 16 0.01 0.13
2:35 am 02:35 Cloudy 57 13.9 55 12.8 93 93 N 7 11 30.17 1022 10 16 0.00 0.00
2:52 am 02:52 Cloudy 57 13.9 55 12.8 93 93 N 8 13 30.16 1021 10 16 0.00 0.00
3:12 am 03:12 Cloudy 57 13.9 55 12.8 93 93 NNW 8 13 30.16 1021 10 16 0.00 0.00
3:52 am 03:52 Mostly Cloudy 57 13.9 55 12.8 93 93 NNW 8 13 30.14 1021 9 14 0.00 0.00
4:52 am 04:52 Mostly Cloudy 57 13.9 54 12.2 89 89 NNW 12 19 30.15 1021 10 16 0.00 0.00
5:25 am 05:25 Partly Cloudy 57 13.9 54 12.2 89 89 NNW 9 15 30.15 1021 10 16 0.00 0.00
5:52 am 05:52 Partly Cloudy 57 13.9 54 12.2 89 89 N 8 13 30.16 1021 10 16 0.00 0.00
6:11 am 06:11 Mostly Cloudy 57 13.9 54 12.2 89 89 NNW 9 15 30.16 1021 10 16 0.00 0.00
6:52 am 06:52 Mostly Cloudy 57 13.9 55 12.8 93 93 NW 9 15 30.17 1022 10 16 0.00 0.00
7:33 am 07:33 Cloudy 57 13.9 55 12.8 93 93 N 6 9 30.17 1022 9 14 0.00 0.00
7:52 am 07:52 Cloudy 58 14.4 55 12.8 90 90 NNW 9 15 30.17 1022 8 13 0.00 0.00
8:08 am 08:08 Cloudy 58 14.4 55 12.8 90 90 NNW 8 13 30.18 1022 8 13 0.00 0.00
8:23 am 08:23 Cloudy 59 15 55 12.8 87 87 NNW 8 13 30.18 1022 8 13 0.00 0.00
8:52 am 08:52 Mostly Cloudy 59 15 55 12.8 87 87 N 9 15 30.18 1022 9 14 0.00 0.00
9:15 am 09:15 Cloudy 60 15.6 55 12.8 83 83 N 9 15 30.18 1022 9 14 0.00 0.00
9:52 am 09:52 Mostly Cloudy 60 15.6 55 12.8 83 83 NNW 12 19 30.18 1022 10 16 0.00 0.00
10:52 am 10:52 Cloudy 61 16.1 55 12.8 81 81 NNW 12 19 30.18 1022 10 16 0.00 0.00
11:19 am 11:19 Cloudy 61 16.1 55 12.8 81 81 N 12 19 30.18 1022 10 16 0.00 0.00
11:52 am 11:52 Cloudy 62 16.7 55 12.8 78 78 NNW 14 22 30.18 1022 10 16 0.00 0.00
12:52 pm 12:52 Cloudy 62 16.7 55 12.8 78 78 N 9 15 30.16 1021 10 16 0.00 0.00
1:52 pm 13:52 Cloudy 65 18.3 56 13.3 73 73 NNE 8 13 30.13 1020 10 16 0.00 0.00
2:52 pm 14:52 Cloudy 64 17.8 56 13.3 75 75 N 10 17 30.13 1020 10 16 0.00 0.00
3:52 pm 15:52 Cloudy 65 18.3 57 13.9 76 76 NNE 9 15 30.12 1020 10 16 0.00 0.00
4:52 pm 16:52 Cloudy 65 18.3 57 13.9 76 76 NNE 6 9 30.11 1020 10 16 0.00 0.00
5:52 pm 17:52 Cloudy 63 17.2 57 13.9 81 81 NE 8 13 30.11 1020 10 16 0.00 0.00
6:52 pm 18:52 Cloudy 62 16.7 57 13.9 84 84 NE 8 13 30.11 1020 10 16 0.00 0.00
7:52 pm 19:52 Cloudy 61 16.1 57 13.9 87 87 NE 5 7 30.12 1020 10 16 0.00 0.00
7:59 pm 19:59 Partly Cloudy 61 16.1 57 13.9 87 87 ENE 5 7 30.13 1020 10 16 0.00 0.00
8:48 pm 20:48 Cloudy 63 17 57 14 82 82 N 6 9 30.14 1021 10 16 0.00 0.00
8:52 pm 20:52 Cloudy 62 16.7 57 13.9 84 84 N 6 9 30.13 1020 10 16 0.00 0.00
9:28 pm 21:28 Cloudy 62 16.7 57 13.9 84 84 N 7 11 30.14 1021 10 16 0.00 0.00
9:52 pm 21:52 Cloudy 62 16.7 57 13.9 84 84 N 6 9 30.13 1020 10 16 0.00 0.00
10:14 pm 22:14 Cloudy 62 16.7 57 13.9 84 84 N 5 7 30.13 1020 10 16 0.00 0.00
10:29 pm 22:29 Cloudy 62 16.7 57 13.9 84 84 N 3 6 30.13 1020 10 16 0.00 0.00
10:52 pm 22:52 Cloudy 62 16.7 57 13.9 84 84 NE 5 7 30.12 1020 10 16 0.00 0.00
11:52 pm 23:52 Cloudy 61 16.1 58 14.4 90 90 Calm 30.11 1020 9 14 0.00 0.00

Powered by AerisWeather